GW2624 Weather Reports


time (UTC)temp
C
wind
direction
speed
KPH
gust
KPH
rain 1hr
cm
rain 24hr
cm
rain mn
cm
humidity
%
barometer
mb
20260510223404 21 156 12.9 32.2 0.00 0.00 0.00 30 1008.7
20260510222404 22 134 9.7 24.1 0.00 0.00 0.00 29 1008.5
20260510220904 22 135 4.8 29.0 0.00 0.00 0.00 26 1008.5
20260510215905 22 114 8.0 20.9 0.00 0.00 0.00 26 1008.4
20260510214904 22 158 8.0 20.9 0.00 0.00 0.00 25 1008.4
20260510214405 22 134 4.8 20.9 0.00 0.00 0.00 23 1008.3
20260510213404 22 123 8.0 16.1 0.00 0.00 0.00 22 1008.6
20260510212904 23 126 4.8 16.1 0.00 0.00 0.00 23 1008.5
20260510210904 21 98 4.8 22.5 0.00 0.00 0.00 28 1008.7
20260510210405 21 146 11.3 22.5 0.00 0.00 0.00 28 1008.7
20260510205405 21 147 8.0 20.9 0.00 0.00 0.00 28 1008.9
20260510204905 20 74 9.7 20.9 0.00 0.00 0.00 30 1008.8
20260510204404 19 145 8.0 20.9 0.00 0.00 0.00 35 1009.1
20260510203904 18 117 9.7 24.1 0.00 0.00 0.00 40 1009.3
20260510202905 17 139 11.3 24.1 0.00 0.00 0.00 41 1009.6
20260510201904 17 138 6.4 14.5 0.00 0.00 0.00 41 1009.3
20260510200405 18 275 4.8 25.7 0.00 0.00 0.00 30 1009.9
20260510195904 20 239 3.2 20.9 0.00 0.00 0.00 34 1009.6
20260510195404 21 265 8.0 20.9 0.00 0.00 0.00 26 1009.3
20260510194904 21 327 4.8 14.5 0.00 0.00 0.00 23 1008.9
20260510194405 21 203 1.6 16.1 0.00 0.00 0.00 22 1008.7
20260510193905 22 149 4.8 16.1 0.00 0.00 0.00 21 1008.6
20260510192905 23 163 4.8 12.9 0.00 0.00 0.00 22 1008.4
20260510192405 23 190 8.0 19.3 0.00 0.00 0.00 21 1008.5
20260510191405 22 31 6.4 19.3 0.00 0.00 0.00 21 1008.4
20260510190904 22 259 8.0 19.3 0.00 0.00 0.00 23 1008.5
20260510190405 22 156 4.8 19.3 0.00 0.00 0.00 22 1008.6
20260510185905 22 190 8.0 19.3 0.00 0.00 0.00 23 1008.7
20260510184904 22 274 1.6 8.0 0.00 0.00 0.00 25 1008.6
20260510184404 22 115 3.2 8.0 0.00 0.00 0.00 22 1008.6
20260510183404 22 199 4.8 19.3 0.00 0.00 0.00 24 1008.6
20260510181905 22 218 3.2 19.3 0.00 0.00 0.00 23 1008.5
20260510181404 21 121 4.8 19.3 0.00 0.00 0.00 25 1008.5
20260510180404 21 178 6.4 19.3 0.00 0.00 0.00 26 1008.5
20260510174404 21 235 6.4 20.9 0.00 0.00 0.00 27 1008.6
20260510173904 21 161 4.8 16.1 0.00 0.00 0.00 26 1008.7
20260510172904 21 193 3.2 19.3 0.00 0.00 0.00 27 1008.6
20260510171904 21 172 4.8 20.9 0.00 0.00 0.00 27 1008.7
20260510171404 21 162 4.8 20.9 0.00 0.00 0.00 29 1008.7
20260510170905 21 150 8.0 19.3 0.00 0.00 0.00 29 1008.7
20260510165904 20 169 4.8 12.9 0.00 0.00 0.00 29 1008.7
20260510165404 20 119 4.8 12.9 0.00 0.00 0.00 30 1008.7
20260510164904 20 121 3.2 12.9 0.00 0.00 0.00 30 1008.6
20260510164405 20 161 3.2 8.0 0.00 0.00 0.00 30 1008.6
20260510163905 20 140 3.2 8.0 0.00 0.00 0.00 29 1008.6
20260510161404 19 12 1.6 9.7 0.00 0.00 0.00 32 1008.7
20260510155905 18 191 1.6 8.0 0.00 0.00 0.00 32 1008.7
20260510155404 18 213 3.2 9.7 0.00 0.00 0.00 32 1008.8
20260510154904 18 240 3.2 9.7 0.00 0.00 0.00 31 1008.7
20260510154405 18 222 3.2 8.0 0.00 0.00 0.00 33 1008.7
20260510153405 18 9 1.6 12.9 0.00 0.00 0.00 33 1008.7
20260510152905 18 199 3.2 12.9 0.00 0.00 0.00 32 1008.7
20260510152405 18 150 1.6 4.8 0.00 0.00 0.00 32 1008.7
20260510151405 17 218 3.2 4.8 0.00 0.00 0.00 31 1008.6
20260510142905 15 247 1.6 4.8 0.00 0.00 0.00 34 1008.2
20260510140905 13 221 0.0 4.8 0.00 0.00 0.00 39 1008.0
20260510135404 12 209 0.0 3.2 0.00 0.00 0.00 50 1007.8
20260510134904 11 146 1.6 3.2 0.00 0.00 0.00 48 1007.8
20260510133904 11 146 1.6 3.2 0.00 0.00 0.00 54 1007.8
20260510133405 11 0 1.6 3.2 0.00 0.00 0.00 54 1007.8
20260510132404 11 0 0.0 3.2 0.00 0.00 0.00 50 1007.8
20260510131904 11 146 0.0 0.0 0.00 0.00 0.00 49 1007.7
20260510131405 11 146 0.0 3.2 0.00 0.00 0.00 49 1007.7
20260510130904 11 146 0.0 3.2 0.00 0.00 0.00 48 1007.5
20260510125405 11 146 0.0 3.2 0.00 0.00 0.00 45 1007.3
20260510123905 12 146 0.0 0.0 0.00 0.00 0.00 44 1007.2
20260510115904 14 0 0.0 1.6 0.00 0.00 0.00 35 1006.9
20260510114905 15 0 0.0 3.2 0.00 0.00 0.00 33 1006.8
20260510114404 15 0 1.6 4.8 0.00 0.00 0.00 33 1006.9
20260510113904 15 0 1.6 4.8 0.00 0.00 0.00 32 1006.8
20260510110404 14 0 3.2 4.8 0.00 0.00 0.00 32 1006.4
20260510104904 13 0 0.0 3.2 0.00 0.00 0.00 36 1006.2
20260510104404 13 0 0.0 3.2 0.00 0.00 0.00 36 1006.1
20260510103905 14 0 1.6 3.2 0.00 0.00 0.00 35 1006.1
20260510103405 14 0 0.0 4.8 0.00 0.00 0.00 34 1006.0
20260510102904 14 0 1.6 4.8 0.00 0.00 0.00 35 1006.0
20260510102404 14 0 3.2 4.8 0.00 0.00 0.00 33 1005.8
20260510101405 14 0 0.0 8.0 0.00 0.00 0.00 34 1006.0
20260510100904 13 0 3.2 8.0 0.00 0.00 0.00 33 1006.0
20260510095904 13 0 4.8 8.0 0.00 0.00 0.00 39 1005.9
20260510095405 12 0 3.2 4.8 0.00 0.00 0.00 40 1005.8
20260510094904 12 0 3.2 4.8 0.00 0.00 0.00 41 1005.7
20260510094405 12 0 1.6 4.8 0.00 0.00 0.00 40 1005.6
20260510092906 11 136 0.0 3.2 0.00 0.00 0.00 44 1005.7
20260510091905 11 136 0.0 4.8 0.00 0.00 0.00 45 1005.5
20260510091405 11 136 0.0 4.8 0.00 0.00 0.00 48 1005.2
20260510090904 11 136 1.6 4.8 0.00 0.00 0.00 44 1005.1
20260510085404 11 136 0.0 3.2 0.00 0.00 0.00 46 1005.4
20260510084404 11 136 0.0 0.0 0.00 0.00 0.00 46 1005.4
20260510083405 11 136 0.0 0.0 0.00 0.00 0.00 46 1005.4
20260510082904 11 136 0.0 0.0 0.00 0.00 0.00 44 1005.3
20260510081904 11 136 0.0 0.0 0.00 0.00 0.00 45 1005.2
20260510081405 11 136 0.0 3.2 0.00 0.00 0.00 44 1005.2
20260510080904 11 136 0.0 3.2 0.00 0.00 0.00 44 1005.1
20260510075905 11 136 0.0 0.0 0.00 0.00 0.00 45 1005.1
20260510073404 11 136 0.0 3.2 0.00 0.00 0.00 41 1005.2
20260510072905 11 136 1.6 3.2 0.00 0.00 0.00 41 1005.2
20260510072404 11 136 0.0 3.2 0.00 0.00 0.00 41 1005.2
20260510071905 12 136 1.6 3.2 0.00 0.00 0.00 41 1005.2
20260510070404 12 136 0.0 3.2 0.00 0.00 0.00 38 1005.0
20260510065905 12 136 0.0 0.0 0.00 0.00 0.00 39 1005.0
20260510065404 12 136 0.0 0.0 0.00 0.00 0.00 40 1005.1
20260510063404 13 136 0.0 0.0 0.00 0.00 0.00 34 1005.1
20260510062904 13 136 0.0 0.0 0.00 0.00 0.00 34 1005.0
20260510062404 13 136 0.0 0.0 0.00 0.00 0.00 34 1005.0
20260510061404 13 136 0.0 3.2 0.00 0.00 0.00 33 1004.9
20260510054904 15 94 0.0 0.0 0.00 0.00 0.00 29 1004.7
20260510054404 15 94 0.0 0.0 0.00 0.00 0.00 29 1004.7
20260510053404 16 94 0.0 4.8 0.00 0.00 0.00 26 1004.7
20260510052905 16 94 1.6 4.8 0.00 0.00 0.00 26 1004.7
20260510051404 17 142 0.0 1.6 0.00 0.00 0.00 25 1004.9
20260510050404 17 142 0.0 0.0 0.00 0.00 0.00 25 1004.9
20260510045905 17 142 0.0 0.0 0.00 0.00 0.00 24 1004.8
20260510043904 17 111 1.6 4.8 0.00 0.00 0.00 26 1004.8
20260510042904 16 153 1.6 3.2 0.00 0.00 0.00 26 1004.8
20260510042404 16 153 0.0 1.6 0.00 0.00 0.00 26 1004.8
20260510041904 17 153 0.0 4.8 0.00 0.00 0.00 25 1004.7
20260510041405 17 153 1.6 4.8 0.00 0.00 0.00 23 1004.7
20260510040405 17 141 0.0 0.0 0.00 0.00 0.00 22 1004.5
20260510034405 18 141 0.0 3.2 0.00 0.00 0.00 19 1004.5
20260510033904 18 141 0.0 3.2 0.00 0.00 0.00 19 1004.4
20260510033404 18 141 0.0 1.6 0.00 0.00 0.00 18 1004.4
20260510032905 19 141 0.0 1.6 0.00 0.00 0.00 19 1004.3
20260510031404 19 141 0.0 1.6 0.00 0.00 0.00 18 1004.0
20260510030904 20 141 0.0 3.2 0.00 0.00 0.00 17 1003.9
20260510025405 20 141 0.0 1.6 0.00 0.00 0.00 16 1003.6
20260510023904 21 141 0.0 3.2 0.00 0.00 0.00 14 1003.2
20260510022905 21 155 0.0 3.2 0.00 0.00 0.00 13 1003.1
20260510021405 22 152 0.0 4.8 0.00 0.00 0.00 13 1002.9
20260510020904 22 128 1.6 3.2 0.00 0.00 0.00 13 1002.8
20260510020404 22 152 0.0 4.8 0.00 0.00 0.00 13 1002.7
20260510015904 22 152 1.6 11.3 0.00 0.00 0.00 13 1002.7
20260510014904 23 251 1.6 4.8 0.00 0.00 0.00 14 1002.6
20260510014404 23 193 1.6 11.3 0.00 0.00 0.00 13 1002.4
20260510012404 23 120 4.8 19.3 0.00 0.00 0.00 12 1002.3
20260510011404 23 200 3.2 4.8 0.00 0.00 0.00 12 1002.2
20260510010904 23 228 3.2 11.3 0.00 0.00 0.00 12 1002.2
20260510010404 23 275 1.6 11.3 0.00 0.00 0.00 12 1002.1
20260510005904 24 204 3.2 11.3 0.00 0.00 0.00 12 1002.2
20260510004404 24 341 3.2 19.3 0.00 0.00 0.00 11 1002.1
20260510002904 25 260 3.2 14.5 0.00 0.00 0.00 11 1002.2
20260510002404 25 253 4.8 14.5 0.00 0.00 0.00 11 1002.0
20260510000904 25 263 3.2 19.3 0.00 0.00 0.00 12 1001.9
20260510000404 25 306 3.2 19.3 0.00 0.00 0.00 12 1002.0
20260509235904 25 241 8.0 19.3 0.00 0.00 0.00 12 1001.9
20260509234904 25 206 4.8 19.3 0.00 0.00 0.00 12 1001.8
20260509234404 25 251 8.0 20.9 0.00 0.00 0.00 11 1001.8
20260509232403 26 252 6.4 19.3 0.00 0.00 0.00 12 1001.6
20260509231904 26 269 4.8 19.3 0.00 0.00 0.00 12 1001.6